Regional Weather Roundup
Issued by NWS Mt. Holly, NJ

Home | Current Version | Previous Version | Text Only | Print | Product List | Glossary On
Versions: 1 2 3 4 5 6 7 8 9 10 11 12 13 14 15 16 17 18 19 20 21 22 23 24 25 26 27 28 29 30 31 32 33 34 35 36 37 38 39 40 41 42 43 44 45 46 47 48 49 50
000
ASUS41 KPHI 271512
RWRPHI

REGIONAL WEATHER ROUNDUP
NATIONAL WEATHER SERVICE MOUNT HOLLY NJ
1100 AM EDT TUE SEP 27 2016

NOTE:  "FAIR" INDICATES FEW OR NO CLOUDS BELOW 12,000 FEET WITH NO
SIGNIFICANT WEATHER AND/OR OBSTRUCTIONS TO VISIBILITY.

 * = STATION DOES NOT REPORT PRECIPITATION (E.G. RAIN, SNOW, ETC.)
        OR FOG.

NJZ015>026-271600-
SOUTHERN NEW JERSEY

CITY           SKY/WX    TMP DP  RH WIND       PRES   REMARKS
POMONA         CLOUDY    69  64  84 NW9       29.96F
WILDWOOD*      LGT RAIN  67  65  93 NW5       29.97S
MILLVILLE      LGT RAIN  67  66  97 W5        29.98R
WRIGHTSTOWN    PTSUNNY   67  62  83 NW6       29.94R
MOUNT HOLLY    CLOUDY    69  61  75 NW7       29.96S
TRENTON        CLOUDY    67  59  75 NW8       29.96F

$$
NJZ001>014-271600-
NORTHERN NEW JERSEY

CITY           SKY/WX    TMP DP  RH WIND       PRES   REMARKS
SUSSEX         MOSUNNY   65  60  84 CALM      29.95F
ANDOVER*         N/A     64  57  78 SW3       29.97R
MORRISTOWN     PTSUNNY   66  59  77 CALM      29.97R
NEWARK         CLOUDY    69  61  75 W8        29.95S
TETERBORO      PTSUNNY   69  59  70 W7        29.94S
CALDWELL       PTSUNNY   67  59  75 VRB5      29.96R
SOMERVILLE     CLOUDY    67  60  78 VRB3      29.95S
ALLAIRE*       CLOUDY    67  63  87 NW6       29.96F
TOMS RIVER*    CLOUDY    68  64  87 NW8       29.96S

$$
PAZ043-044-047-054-055-060>062-066>071-271600-
EASTERN PENNSYLVANIA

CITY           SKY/WX    TMP DP  RH WIND       PRES   REMARKS
PHILADELPHIA   CLOUDY    68  59  73 NW7       29.97F
NORTH PHILA    CLOUDY    70  60  70 NW7       29.98S
BLUE BELL*     CLOUDY    66  57  72 NW3       29.96F
DOYLESTOWN     MOSUNNY   68  60  75 MISG      29.97S
QUAKERTOWN*    MOSUNNY   64  55  72 N5        29.99S
PERKASIE*      FAIR      64  57  77 W6        29.99S
POTTSTOWN      CLOUDY    65  58  78 NW3       29.99F
LANCASTER      SUNNY     68  54  60 VRB7      29.99S
COATESVILLE    MOSUNNY   66  55  68 NW6       30.00F
READING        MOSUNNY   67  56  67 MISG      29.97F
ALLENTOWN      PTSUNNY   64  55  72 W5        29.97S
MOUNT POCONO   MOSUNNY   60  48  64 W7        29.98S
HAZLETON       SUNNY     63  52  67 W5        30.01S
LEHIGHTON        N/A     63  59  88 CALM      29.98S
WILKES BARRE   SUNNY     64  54  69 VRB6      29.96F

$$
DEZALL-MDZ008-012-015-019-020-271600-
DELAWARE AND EASTERN MARYLAND

CITY           SKY/WX    TMP DP  RH WIND       PRES   REMARKS
WILMINGTON     CLOUDY    68  59  73 NW8       29.98S
DOVER          LGT RAIN  66  66 100 NW5       29.97S
GEORGETOWN     LGT RAIN  68  66  93 NW3       29.98F
EASTON         CLOUDY    68  64  88 CALM      30.02R
ABERDEEN       CLOUDY    68  61  77 CALM      29.98R
PATUXENT       RAIN      67  64  90 N3        29.98S FOG
OCEAN CITY     LGT RAIN  69  64  84 CALM      29.97F
WALLOPS ISLAND CLOUDY    72  70  93 CALM      29.97F
CAMBRIDGE      CLOUDY    68  63  83 N3        29.97S
SALISBURY      CLOUDY    69  65  86 N5        29.97F

$$
PAZ001-021-NYZ056-072-MDZ011-DCZ001-271600-
OTHER NEARBY LOCATIONS

CITY           SKY/WX    TMP DP  RH WIND       PRES   REMARKS
HARRISBURG     SUNNY     67  54  63 NW8       29.98S
STATE COLLEGE  SUNNY     63  52  67 SW6       29.97F
WILLIAMSPORT   MOSUNNY   63  56  78 CALM      29.95F
BINGHAMTON     SUNNY     59  51  75 SW8       29.94S
NEW YORK CITY  CLOUDY    67  60  78 NW6       29.98R
BALTIMORE      CLOUDY    66  57  72 N6        29.99R
WASHINGTON DC  CLOUDY    67  58  72 N7        30.00S

$$



USA.gov is the U.S. government's official web portal to all federal, state and local government web resources and services.